Terminal Aerodrome Forecast
Issued by NWS

Home | Current Version | Previous Version | Text Only | Print | Product List | Glossary On
Versions: 1 2 3 4 5 6 7 8 9 10 11 12 13
000
FTUS46 KHNX 252335
TAFVIS
TAF
KVIS 252335Z 2600/2624 32010G15KT P6SM BKN100
      TEMPO 2602/2605 P6SM -SHRA BKN050 OVC060
     FM260500 VRB05KT P6SM SCT250=

USA.gov is the U.S. government's official web portal to all federal, state and local government web resources and services.